Location: Colonia Mina de C?rbuni
(46.1667°N, 22.7167°E)
Time: 18:03:38
(UTC+00:00)

Altair - Visible Passes

Search period start: 19 April 2024 00:00
Search period end: 29 April 2024 00:00
Orbit: 1502 x 1682 km, 47.2° (Epoch: 18 April)

Date Brightness Start Highest point End Pass type
(mag) Time Alt. Az. Time Alt. Az. Time Alt. Az.
19 Apr 8.5 00:36:36 10° WNW 00:53:22 - SSE 00:40:44 25° W visible
19 Apr 7.6 17:56:08 10° SW 18:06:05 69° SSE 18:15:43 10° ENE visible
19 Apr 7.5 20:00:55 10° W 20:10:55 85° N 20:20:07 12° E visible
19 Apr 7.3 22:06:07 10° WNW 22:15:55 80° SSW 22:18:04 59° SE visible
20 Apr 8.4 00:11:18 10° WNW 00:16:01 28° W 00:16:01 28° W visible
20 Apr 7.6 19:35:38 10° W 19:45:40 85° N 19:55:19 10° E visible
20 Apr 7.3 21:40:51 10° WNW 21:50:42 83° SSW 21:53:31 52° ESE visible
20 Apr 8.2 23:45:59 10° WNW 23:51:29 32° W 23:51:29 32° W visible
21 Apr 7.6 19:10:20 10° W 19:20:25 86° N 19:30:06 10° E visible
21 Apr 7.4 21:15:35 10° WNW 21:25:29 85° SSW 21:29:05 45° ESE visible
21 Apr 8.1 23:20:41 10° WNW 23:27:03 37° WSW 23:27:03 37° WSW visible
22 Apr 7.6 18:45:03 10° W 18:55:09 87° N 19:04:53 10° E visible
22 Apr 7.4 20:50:19 10° WNW 21:00:15 87° SSW 21:04:44 38° ESE visible
22 Apr 7.9 22:55:24 10° WNW 23:02:41 43° WSW 23:02:41 43° WSW visible
23 Apr 7.7 18:19:46 10° WSW 18:29:53 88° NNW 18:39:40 10° E visible
23 Apr 7.4 20:25:02 10° WNW 20:35:01 89° SSW 20:40:25 31° ESE visible
23 Apr 7.7 22:30:07 10° WNW 22:38:23 49° SW 22:38:23 49° SW visible
24 Apr 7.7 17:54:30 10° WSW 18:04:38 90° NNW 18:14:27 10° E visible
24 Apr 7.5 19:59:45 10° W 20:09:46 89° NNE 20:16:08 25° ESE visible
24 Apr 7.6 22:04:50 10° WNW 22:14:08 53° SW 22:14:08 53° SW visible
25 Apr 9.2 00:11:31 10° W 00:12:06 11° W 00:12:06 11° W visible
25 Apr 7.5 19:34:28 10° W 19:44:31 88° N 19:51:55 20° E visible
25 Apr 7.5 21:39:33 10° WNW 21:49:03 57° SSW 21:49:55 55° SSW visible
25 Apr 9.1 23:45:55 10° W 23:47:53 14° W 23:47:53 14° W visible
26 Apr 7.6 19:09:11 10° W 19:19:16 87° N 19:27:43 15° E visible
26 Apr 7.5 21:14:17 10° WNW 21:23:53 60° SSW 21:25:42 53° S visible
26 Apr 8.9 23:20:22 10° W 23:23:42 18° WSW 23:23:42 18° WSW visible
27 Apr 7.6 18:43:54 10° W 18:54:01 86° N 19:03:33 11° E visible
27 Apr 7.5 20:49:01 10° WNW 20:58:43 63° SSW 21:01:32 47° SSE visible
27 Apr 8.7 22:54:53 10° W 22:59:32 21° WSW 22:59:32 21° WSW visible
28 Apr 7.7 18:18:37 10° W 18:28:45 85° N 18:38:32 10° E visible
28 Apr 7.5 20:23:45 10° WNW 20:33:32 67° SSW 20:37:24 40° SE visible
28 Apr 8.6 22:29:26 10° W 22:35:24 25° WSW 22:35:24 25° WSW visible
